| time (UTC) | temp F | wind direction | speed MPH | gust MPH | rain 1hr in | rain 24hr in | rain mn in | humidity % | barometer mb |
| 20260508131535 | 52 | 269 | 0.0 | 1.0 | 0.00 | 0.00 | 0.00 | 100 | 1018.2 |
| 20260508130034 | 49 | 269 | 0.0 | 0.0 | 0.00 | 0.00 | 0.00 | 99 | 1018.1 |
| 20260508124534 | 47 | 269 | 0.0 | 0.0 | 0.00 | 0.00 | 0.00 | 99 | 1018.2 |
| 20260508123043 | 45 | 269 | 0.0 | 0.0 | 0.00 | 0.00 | 0.00 | 99 | 1018.1 |
| 20260508121530 | 44 | 269 | 0.0 | 0.0 | 0.00 | 0.00 | 0.00 | 98 | 1018.1 |
| 20260508120024 | 42 | 269 | 0.0 | 0.0 | 0.00 | 0.00 | 0.00 | 98 | 1017.8 |
| 20260508114523 | 42 | 269 | 0.0 | 0.0 | 0.00 | 0.00 | 0.00 | 98 | 1017.6 |
| 20260508113023 | 41 | 269 | 0.0 | 0.0 | 0.00 | 0.00 | 0.00 | 98 | 1017.5 |
| 20260508111527 | 41 | 269 | 0.0 | 0.0 | 0.00 | 0.00 | 0.00 | 97 | 1017.1 |
| 20260508110025 | 41 | 269 | 0.0 | 0.0 | 0.00 | 0.00 | 0.00 | 97 | 1017.2 |
| 20260508104520 | 41 | 269 | 0.0 | 0.0 | 0.00 | 0.00 | 0.00 | 97 | 1017.2 |
| 20260508103018 | 42 | 269 | 0.0 | 0.0 | 0.00 | 0.00 | 0.00 | 97 | 1017.2 |
| 20260508101517 | 42 | 269 | 0.0 | 0.0 | 0.00 | 0.00 | 0.00 | 97 | 1017.1 |
| 20260508100017 | 42 | 269 | 0.0 | 0.0 | 0.00 | 0.00 | 0.00 | 97 | 1016.8 |
| 20260508094514 | 42 | 269 | 0.0 | 0.0 | 0.00 | 0.00 | 0.00 | 97 | 1016.6 |
| 20260508093017 | 42 | 269 | 0.0 | 0.0 | 0.00 | 0.00 | 0.00 | 97 | 1016.6 |
| 20260508091511 | 43 | 269 | 0.0 | 0.0 | 0.00 | 0.00 | 0.00 | 97 | 1016.6 |
| 20260508090016 | 43 | 269 | 0.0 | 0.0 | 0.00 | 0.00 | 0.00 | 97 | 1016.6 |
| 20260508084508 | 43 | 269 | 0.0 | 0.0 | 0.00 | 0.00 | 0.00 | 97 | 1016.5 |
| 20260508083008 | 44 | 269 | 0.0 | 0.0 | 0.00 | 0.00 | 0.00 | 97 | 1016.7 |
| 20260508081504 | 44 | 269 | 0.0 | 0.0 | 0.00 | 0.00 | 0.00 | 97 | 1016.6 |
| 20260508080004 | 44 | 269 | 0.0 | 0.0 | 0.00 | 0.00 | 0.00 | 97 | 1016.7 |
| 20260508074501 | 45 | 269 | 0.0 | 1.0 | 0.00 | 0.00 | 0.00 | 97 | 1016.8 |
| 20260508073111 | 45 | 269 | 0.0 | 0.0 | 0.00 | 0.00 | 0.00 | 96 | 1016.8 |
| 20260508071605 | 45 | 269 | 0.0 | 0.0 | 0.00 | 0.00 | 0.00 | 96 | 1016.8 |
| 20260508070054 | 46 | 269 | 0.0 | 0.0 | 0.00 | 0.00 | 0.00 | 96 | 1017.0 |
| 20260508064559 | 46 | 269 | 0.0 | 0.0 | 0.00 | 0.00 | 0.00 | 96 | 1017.2 |
| 20260508063057 | 46 | 269 | 0.0 | 0.0 | 0.00 | 0.00 | 0.00 | 96 | 1017.3 |
| 20260508061550 | 47 | 269 | 0.0 | 0.0 | 0.00 | 0.00 | 0.00 | 96 | 1017.4 |
| 20260508054546 | 47 | 269 | 0.0 | 0.0 | 0.00 | 0.00 | 0.00 | 96 | 1017.5 |
| 20260508053044 | 47 | 269 | 0.0 | 0.0 | 0.00 | 0.00 | 0.00 | 96 | 1017.4 |
| 20260508051559 | 48 | 269 | 0.0 | 0.0 | 0.00 | 0.00 | 0.00 | 95 | 1017.5 |
| 20260508050039 | 48 | 269 | 0.0 | 0.0 | 0.00 | 0.00 | 0.00 | 95 | 1017.5 |
| 20260508044547 | 48 | 269 | 0.0 | 0.0 | 0.00 | 0.00 | 0.00 | 95 | 1017.4 |
| 20260508043039 | 48 | 269 | 0.0 | 0.0 | 0.00 | 0.00 | 0.00 | 94 | 1017.5 |
| 20260508041538 | 49 | 269 | 0.0 | 0.0 | 0.00 | 0.00 | 0.00 | 94 | 1017.4 |
| 20260508040048 | 49 | 269 | 0.0 | 0.0 | 0.00 | 0.00 | 0.00 | 94 | 1017.1 |
| 20260508034546 | 49 | 269 | 0.0 | 0.0 | 0.00 | 0.00 | 0.00 | 93 | 1017.4 |
| 20260508033044 | 50 | 269 | 0.0 | 0.0 | 0.00 | 0.00 | 0.00 | 93 | 1017.7 |
| 20260508031540 | 50 | 269 | 0.0 | 0.0 | 0.00 | 0.00 | 0.00 | 92 | 1017.5 |
| 20260508030036 | 51 | 269 | 0.0 | 0.0 | 0.00 | 0.00 | 0.00 | 92 | 1017.5 |
| 20260508024559 | 51 | 269 | 0.0 | 0.0 | 0.00 | 0.00 | 0.00 | 91 | 1017.1 |
| 20260508023038 | 52 | 269 | 0.0 | 0.0 | 0.00 | 0.00 | 0.00 | 89 | 1017.1 |
| 20260508021536 | 52 | 269 | 0.0 | 0.0 | 0.00 | 0.00 | 0.00 | 87 | 1016.9 |
| 20260508020038 | 53 | 269 | 0.0 | 0.0 | 0.00 | 0.00 | 0.00 | 87 | 1016.8 |
| 20260508014537 | 54 | 269 | 0.0 | 0.0 | 0.00 | 0.00 | 0.00 | 85 | 1016.8 |
| 20260508013035 | 55 | 269 | 0.0 | 0.0 | 0.00 | 0.00 | 0.00 | 81 | 1016.8 |
| 20260508011533 | 56 | 269 | 0.0 | 0.0 | 0.00 | 0.00 | 0.00 | 78 | 1016.5 |
| 20260508010047 | 58 | 269 | 0.0 | 0.0 | 0.00 | 0.00 | 0.00 | 76 | 1016.6 |
| 20260508004543 | 59 | 269 | 0.0 | 0.0 | 0.00 | 0.00 | 0.00 | 72 | 1016.5 |
| 20260508003030 | 61 | 269 | 0.0 | 0.0 | 0.00 | 0.00 | 0.00 | 67 | 1016.5 |
| 20260508001538 | 63 | 269 | 0.0 | 0.0 | 0.00 | 0.00 | 0.00 | 63 | 1016.0 |
| 20260508000029 | 64 | 269 | 0.0 | 1.0 | 0.00 | 0.00 | 0.00 | 60 | 1016.1 |
| 20260507234532 | 65 | 269 | 0.0 | 2.0 | 0.00 | 0.00 | 0.00 | 54 | 1016.0 |
| 20260507233028 | 65 | 232 | 0.0 | 2.0 | 0.00 | 0.00 | 0.00 | 55 | 1015.9 |
| 20260507231526 | 66 | 236 | 0.0 | 3.0 | 0.00 | 0.00 | 0.00 | 52 | 1016.1 |
| 20260507230026 | 68 | 342 | 0.0 | 3.0 | 0.00 | 0.00 | 0.00 | 51 | 1016.1 |
| 20260507224524 | 69 | 246 | 0.0 | 2.0 | 0.00 | 0.00 | 0.00 | 51 | 1016.0 |
| 20260507223023 | 69 | 246 | 0.0 | 3.0 | 0.00 | 0.00 | 0.00 | 51 | 1016.0 |
| 20260507221521 | 69 | 244 | 2.0 | 5.0 | 0.00 | 0.00 | 0.00 | 48 | 1016.0 |
| 20260507220018 | 68 | 288 | 0.0 | 3.0 | 0.00 | 0.00 | 0.00 | 52 | 1015.8 |
| 20260507214516 | 68 | 287 | 0.0 | 5.0 | 0.00 | 0.00 | 0.00 | 50 | 1015.8 |
| 20260507213022 | 68 | 270 | 1.0 | 5.0 | 0.00 | 0.00 | 0.00 | 51 | 1015.9 |
| 20260507211513 | 68 | 4 | 2.0 | 6.0 | 0.00 | 0.00 | 0.00 | 51 | 1016.1 |
| 20260507210012 | 68 | 260 | 1.0 | 7.0 | 0.00 | 0.00 | 0.00 | 49 | 1016.2 |
| 20260507204510 | 68 | 79 | 1.0 | 5.0 | 0.00 | 0.00 | 0.00 | 52 | 1016.3 |
| 20260507203011 | 68 | 272 | 1.0 | 4.0 | 0.00 | 0.00 | 0.00 | 52 | 1016.4 |
| 20260507201507 | 68 | 246 | 0.0 | 6.0 | 0.00 | 0.00 | 0.00 | 49 | 1016.5 |
| 20260507200004 | 68 | 266 | 1.0 | 7.0 | 0.00 | 0.00 | 0.00 | 51 | 1016.6 |
| 20260507194506 | 68 | 279 | 1.0 | 7.0 | 0.00 | 0.00 | 0.00 | 51 | 1016.5 |
| 20260507193002 | 68 | 233 | 2.0 | 6.0 | 0.00 | 0.00 | 0.00 | 51 | 1016.7 |
| 20260507191503 | 67 | 307 | 1.0 | 4.0 | 0.00 | 0.00 | 0.00 | 51 | 1016.8 |
| 20260507190006 | 67 | 263 | 0.0 | 10.0 | 0.00 | 0.00 | 0.00 | 55 | 1016.8 |
| 20260507184559 | 67 | 273 | 1.0 | 8.0 | 0.00 | 0.00 | 0.00 | 56 | 1016.9 |
| 20260507183057 | 66 | 242 | 1.0 | 6.0 | 0.00 | 0.00 | 0.00 | 55 | 1016.8 |
| 20260507181554 | 65 | 209 | 1.0 | 6.0 | 0.00 | 0.00 | 0.00 | 55 | 1017.1 |
| 20260507180054 | 65 | 10 | 2.0 | 7.0 | 0.00 | 0.00 | 0.00 | 56 | 1017.2 |
| 20260507174554 | 64 | 342 | 1.0 | 7.0 | 0.00 | 0.00 | 0.00 | 58 | 1017.4 |
| 20260507173124 | 64 | 30 | 1.0 | 5.0 | 0.00 | 0.00 | 0.00 | 57 | 1017.7 |
| 20260507171550 | 65 | 250 | 0.0 | 6.0 | 0.00 | 0.00 | 0.00 | 62 | 1017.6 |
| 20260507170050 | 65 | 36 | 1.0 | 6.0 | 0.00 | 0.00 | 0.00 | 59 | 1017.8 |
| 20260507164547 | 64 | 34 | 0.0 | 5.0 | 0.00 | 0.00 | 0.00 | 60 | 1017.9 |
| 20260507163046 | 63 | 248 | 1.0 | 5.0 | 0.00 | 0.00 | 0.00 | 59 | 1018.2 |
| 20260507161549 | 63 | 293 | 1.0 | 5.0 | 0.00 | 0.00 | 0.00 | 65 | 1018.2 |
| 20260507160049 | 62 | 120 | 2.0 | 5.0 | 0.00 | 0.00 | 0.00 | 62 | 1018.3 |
| 20260507154541 | 61 | 307 | 2.0 | 6.0 | 0.00 | 0.00 | 0.00 | 61 | 1018.4 |
| 20260507153035 | 60 | 59 | 2.0 | 5.0 | 0.00 | 0.00 | 0.00 | 71 | 1018.5 |
| 20260507151533 | 59 | 307 | 1.0 | 5.0 | 0.00 | 0.00 | 0.00 | 80 | 1018.5 |
| 20260507150039 | 58 | 298 | 1.0 | 3.0 | 0.00 | 0.00 | 0.00 | 79 | 1018.3 |
| 20260507144530 | 58 | 301 | 1.0 | 4.0 | 0.00 | 0.00 | 0.00 | 84 | 1018.3 |
| 20260507143025 | 57 | 321 | 0.0 | 3.0 | 0.00 | 0.00 | 0.00 | 88 | 1018.5 |
| 20260507141524 | 56 | 316 | 1.0 | 3.0 | 0.00 | 0.00 | 0.00 | 92 | 1018.3 |
| 20260507140018 | 54 | 308 | 1.0 | 4.0 | 0.00 | 0.00 | 0.00 | 95 | 1018.1 |
| 20260507134514 | 52 | 346 | 0.0 | 4.0 | 0.00 | 0.00 | 0.00 | 98 | 1018.4 |
| 20260507133017 | 52 | 265 | 0.0 | 1.0 | 0.00 | 0.00 | 0.00 | 100 | 1018.1 |